Regional Weather Roundup
Issued by NWS

Home | Current Version | Previous Version | Graphics & Text | Print | Product List | Glossary On
Versions: 1 2 3 4 5 6 7 8 9 10 11 12 13 14 15 16 17 18 19 20 21 22 23 24 25 26 27
000
ASUS45 KSLC 040110
RWRUT

UTAH REGIONAL WEATHER ROUNDUP
NATIONAL WEATHER SERVICE SALT LAKE CITY UT
600 PM MST SAT DEC 03 2016

UTZ001>011-023>025-040200-

NORTHERN UTAH

CITY           SKY/WX    TMP DP  RH WIND       PRES   REMARKS
BRIGHAM CITY     N/A     33  21  61 CALM      30.27R
HILL AFB       CLOUDY    29  22  73 CALM      30.25S
LOGAN          CLOUDY   N/A N/A N/A CALM      30.26R
OGDEN          CLOUDY    32  21  64 CALM      30.25F
SALT LAKE CITY MOCLDY    34  21  59 SE6       30.26S WCI  29
TOOELE VALLEY  PTCLDY    23  19  86 SE6       30.25F WCI  16
WENDOVER       CLEAR     36  14  41 CALM      30.24F
HEBER CITY     MOCLDY    21  14  73 SE3       30.21F
WEST JORDAN    CLOUDY    31  26  81 S3        30.25F

$$

UTZ011>015-024>027-040200-

CENTRAL/NORTHEAST UTAH

CITY           SKY/WX    TMP DP  RH WIND       PRES   REMARKS
PROVO AIRPORT  MOCLDY    30  19  64 NW3       30.27F
MOAB/CANYONLAN CLEAR     31  11  43 NW7       30.15R WCI  24
DELTA          CLEAR     28  16  59 S6        30.25S WCI  22
PRICE          PTCLDY    30  11  45 NW21      30.16R WCI  17
RICHFIELD      PTCLDY    28  19  69 NE1       30.27R
ROOSEVELT      CLEAR     28  14  54 CALM      30.20R
VERNAL         CLEAR     23  13  65 W3        30.16R

$$

UTZ013>016-019>022-027-040200-

SOUTHERN UTAH

CITY           SKY/WX    TMP DP  RH WIND       PRES   REMARKS
BRYCE CANYON   NOT AVBL
CEDAR CITY     PTCLDY    31  16  54 N10       30.19R WCI  22
MILFORD        CLEAR     28  14  55 N7        30.23S WCI  21
ST GEORGE      MOCLDY    46  14  27 CALM      30.17S
HANKSVILLE     CLEAR     28  10  47 CALM      30.18R
KANAB          CLEAR     43  10  26 N10       30.17R
BLANDING       CLEAR     31  11  43 CALM      30.16R

$$

REGIONAL REPORTS     COLORADO/ARIZONA

CITY           SKY/WX    TMP DP  RH WIND       PRES   REMARKS
CRAIG, CO      CLOUDY    27  14  58 CALM      30.14R
GRAND JUNCTION CLEAR     30  17  58 N7        30.16S WCI  23
RIFLE, CO      CLOUDY    25  18  74 CALM      30.16R
MONTROSE, CO   CLEAR     30  17  58 CALM      30.16R
CORTEZ, CO     CLEAR     32  12  43 NW8       30.10R WCI  25
COLORADO CITY    N/A     37  18  44 N3        30.17R
PAGE, AZ       CLEAR     40  10  29 CALM      30.13S
GRAND CANYON   CLEAR     25  13  60 CALM      30.13S
KINGMAN, AZ    CLEAR     42   9  25 NE9       30.11R
FLAGSTAFF, AZ  PTCLDY    36   3  25 NE15G25   30.08S WCI  27

$$

REGIONAL REPORTS    NEVADA/IDAHO/WYOMING

CITY           SKY/WX    TMP DP  RH WIND       PRES   REMARKS
LAS VEGAS, NV  CLEAR     55   6  14 S5        30.13F
ELY, NY        CLEAR     27  15  61 W9        30.23S WCI  18
ELKO, NV       PTCLDY    30  16  56 CALM      30.27R
POCATELLO, ID  CLOUDY    34  26  72 SW14      30.19F WCI  25
BURLEY, ID     PTCLDY    34  25  69 SW7       30.19S WCI  28
FORT BRIDGER,  CLOUDY    24  18  78 W18G26    30.16F WCI  10
EVANSTON, WY   CLOUDY    23  13  65 SW9       30.18S WCI  13
ROCK SPRINGS,  CLEAR     22  15  75 W23       30.12R WCI   6

$$




USA.gov is the U.S. government's official web portal to all federal, state and local government web resources and services.